#timestamp,LO_Frequency,Hit,StdDev 
1658638815.8,286047002.6,N
1658638835.6,286047000.1,N
1658638855.5,286046998.1,N
1658638875.3,286046998.1,N
1658638895.1,286046998.1,N
1658638915.9,286047000.2,N
1658638935.7,286047000.3,N
1658638955.6,286046999.7,N
1658638975.4,286047000.4,N
1658638995.2,286047000.1,N
1658639015.1,286047001.5,N
1658639016.0,286047001.5,N
1658639035.8,286047002.6,N
1658639055.6,286047002.6,N
1658639075.5,286047001.7,N
1658639095.3,286047001.8,N
1658639115.2,286047001.6,N
1658639135.9,286047001.6,N
1658639155.7,286047002.5,N
1658639175.6,286047001.7,N
1658639195.4,286047001.6,N
1658639215.2,286047002.8,N
1658639235.1,286046999.8,N
1658639236.0,286046999.8,N
1658639255.8,286047000.4,N
1658639275.7,286047000.0,N
1658639295.5,286046999.8,N
1658639315.3,286047002.5,N
1658639335.2,286047000.3,N
1658639355.0,286047000.1,N
1658639355.9,286047000.1,N
1658639375.8,286047001.7,N
1658639395.6,286047002.5,N
1658639415.4,286047000.0,N
1658639435.3,286047000.0,N
1658639455.1,286046998.1,N
1658639475.8,286047000.7,N
1658639495.7,286046998.5,N
1658639515.5,286046998.3,N
1658639535.4,286046998.3,N
1658639555.2,286046998.9,N
1658639575.0,286046998.8,N
1658639575.9,286046998.8,N
1658639595.8,286046999.3,N
1658639615.6,286046999.3,N
1658639635.4,286046999.1,N
1658639655.3,286046996.9,N
1658639675.1,286046998.6,N
1658639695.9,286046998.5,N
1658639715.7,286046998.4,N
1658639735.5,286046998.1,N
1658639755.4,286047001.2,N
1658639775.2,286047001.1,N
1658639795.0,286047000.3,N
1658639795.9,286047000.3,N
1658639815.8,286047000.7,N
1658639835.6,286047000.8,N
1658639855.4,286047000.0,N
1658639875.3,286047000.7,N
1658639895.1,286047000.7,N
1658639915.9,286046999.4,N
1658639935.7,286046997.0,N
1658639955.5,286046997.3,N
1658639975.4,286046997.2,N
1658639995.2,286046999.5,N
1658640015.0,286046999.4,N
1658640015.9,286046999.4,N
1658640035.8,286046998.8,N
1658640055.6,286046999.2,N
1658640075.5,286046998.7,N
1658640095.3,286046998.8,N
1658640115.1,286046998.3,N
1658640135.9,286046998.2,N
1658640155.7,286047001.1,N
1658640175.1,286046999.7,N
1658640176.0,286046999.7,N
1658640195.8,286047002.7,N
1658640215.7,286047000.2,N
1658640235.5,286047000.1,N
1658640255.3,286047000.0,N
1658640275.2,286047000.0,N
1658640295.0,286047000.8,N
1658640295.9,286047000.8,N
1658640315.8,286046998.2,N
1658640335.6,286047000.7,N
1658640355.4,286046998.2,N
1658640375.3,286047001.1,N
1658640395.1,286046999.8,N
1658640415.9,286046999.8,N
1658640435.7,286047002.4,N
1658640455.5,286047000.5,N
1658640475.4,286046999.8,N
1658640495.2,286047002.5,N
1658640515.0,286047000.9,N
1658640515.9,286047000.9,N
1658640535.8,286046999.8,N
1658640555.6,286047000.6,N
1658640575.5,286047000.7,N
1658640595.3,286047000.7,N
1658640615.1,286046998.5,N
1658640635.9,286047000.6,N
1658640655.7,286046998.2,N
1658640675.5,286047000.4,N
1658640695.4,286047001.2,N
1658640715.2,286047000.8,N
1658640735.0,286047000.9,N
1658640736.0,286047000.9,N
1658640755.8,286047001.2,N
1658640775.6,286046998.2,N
1658640795.5,286046998.5,N
1658640815.3,286047001.2,N
1658640835.1,286046998.1,N
1658640855.9,286046998.4,N
1658640875.7,286047000.7,N
1658640895.6,286047001.1,N
1658640915.4,286046998.1,N
1658640935.2,286047000.8,N
1658640955.1,286046998.5,N
1658640956.0,286046998.5,N
1658640975.8,286046998.9,N
1658640995.6,286046998.2,N
1658641015.5,286046998.6,N
1658641035.3,286047001.0,N
1658641055.2,286047000.6,N
1658641075.9,286047000.9,N
1658641095.7,286046998.5,N
1658641115.6,286047000.7,N
1658641135.4,286047000.5,N
1658641155.2,286046998.3,N
1658641175.1,286046999.2,N
1658641176.0,286046999.2,N
1658641195.8,286046999.3,N
1658641215.7,286046999.3,N
1658641235.5,286046998.8,N
1658641255.3,286046998.7,N
1658641275.2,286046999.0,N
1658641295.9,286046999.0,N
1658641315.7,286046999.2,N
1658641335.6,286046999.2,N
1658641355.4,286046999.4,N
1658641375.2,286046998.3,N
1658641395.1,286046998.6,N
1658641396.0,286046998.6,N
1658641415.8,286046998.1,N
1658641435.7,286046998.3,N
1658641455.5,286046999.0,N
1658641475.3,286046999.3,N
1658641495.2,286046998.5,N
1658641515.0,286046999.4,N
1658641515.9,286046999.4,N
1658641535.8,286046996.7,Y
1658641555.6,286046998.9,P
1658641575.4,286046998.2,P
1658641595.3,286046999.0,N
1658641615.1,286046999.3,N
1658641635.8,286046999.1,N
1658641655.7,286046999.2,N
1658641675.5,286046996.7,Y
1658641695.4,286046999.2,P
1658641715.2,286046998.4,P
1658641735.0,286046998.5,P
1658641735.9,286046998.5,Y
1658641755.8,286047000.7,P
1658641775.6,286047000.6,N
1658641795.4,286047001.0,N
1658641815.3,286046998.6,N
1658641835.1,286046998.2,N
1658641855.9,286046998.3,N
1658641875.7,286047000.3,N
1658641895.5,286047002.7,N
1658641915.4,286047002.5,N
1658641935.2,286047002.1,N
1658641955.0,286047002.8,N
1658641955.9,286047002.8,N
1658641975.8,286047002.7,N
1658641995.6,286047002.0,N
1658642015.5,286047002.2,N
1658642035.3,286047002.0,N
1658642055.1,286047004.3,N
1658642075.9,286047003.6,N
1658642095.7,286047001.5,N
1658642115.5,286047001.5,N
1658642135.4,286047001.7,N
1658642155.2,286047001.9,N
1658642175.1,286046999.7,N
1658642176.0,286046999.7,N
1658642195.8,286047002.7,N
1658642215.6,286047000.0,N
1658642235.5,286047000.5,N
1658642255.3,286046999.8,N
1658642275.1,286047001.6,N
1658642295.9,286047004.3,N
1658642315.7,286047003.5,N
1658642335.6,286047004.1,N
1658642355.4,286047003.2,N
1658642375.2,286047004.0,N
1658642425.1,286047006.0,E
